Flag for Australia Weather past 2 weeks in Darwin, Northern Territory, Australia

Now
84 °F

Sunny.


Feels Like: 81 °F
Forecast: 66 / 89 °F
Wind: 8 mph from East

Location: Darwin Airport

Current Time: Aug 23, 2014 at 1:11:45 PM

Latest Report: Aug 23, 2014 at 12:00 PM


Visibility: 10 mi

Pressure: 29.98 "Hg

Humidity: 12%

Dew point: 27 °F

Location of DarwinLocation

Historic Weather in Darwin — Graph

°F

Darwin temperature yesterday

Maximum temperature yesterday: 86 °F (at 2:00 PM)
Minimum temperature yesterday: 61 °F (at 1:30 AM)
Average temperature yesterday: 71 °F

Past Weeks' High & Low Weather Summary

 TemperatureHumidityPressure
High91 °F (Aug 8, 1:30 PM)94% (Aug 9, 6:30 AM)30.07 "Hg (Aug 9, 6:30 AM)
Low55 °F (Aug 23, 5:00 AM)7% (Aug 17, 1:30 PM)29.86 "Hg (Aug 11, 4:00 PM)
Average74 °F49%29.97 "Hg
* Reported Aug 8 11:30 AM — Aug 23 11:30 AM, Darwin, Weather by CustomWeather, © 2014

Note: Actual official high and low records may vary slightly from our data, if they occured in-between our weather recording intervals... More about our weather records

Advertising

Darwin weather history for previous 24 hours

 ConditionsComfort  
Time TempWeatherWind HumidityBarometerVisibility
11:30 AM
Aug 23
82 °FSunny.7 mph21%30.01 "Hg10 mi
11:00 AM81 °FSunny.7 mph37%30.01 "Hg6 mi
10:30 AM79 °FSunny.10 mph37%30.04 "Hg6 mi
10:00 AM77 °FSunny.7 mph51%30.04 "Hg6 mi
9:30 AM75 °FSunny.7 mph54%30.01 "Hg6 mi
8:30 AM66 °FSunny.6 mph68%30.01 "Hg4 mi
7:30 AM61 °FSunny.8 mph88%30.01 "Hg10 mi
7:00 AM57 °FClear.5 mph88%29.98 "Hg10 mi
6:30 AM59 °FClear.7 mph88%29.98 "Hg10 mi
6:00 AM59 °FClear.8 mph94%29.95 "Hg10 mi
5:30 AM55 °FClear.5 mph94%29.95 "Hg10 mi
5:00 AM55 °FClear.5 mph94%29.92 "Hg10 mi
4:30 AM57 °FClear.5 mph88%29.92 "Hg10 mi
4:00 AM59 °FClear.1 mph88%29.95 "Hg10 mi
3:30 AM61 °FClear.2 mph83%29.95 "Hg10 mi
3:00 AM61 °FClear.3 mph88%29.95 "Hg10 mi
2:30 AM63 °FClear.5 mph83%29.95 "Hg10 mi
2:00 AM61 °FClear.13 mph88%29.95 "Hg10 mi
1:30 AM63 °FClear.6 mph88%29.95 "Hg10 mi
1:00 AM63 °FClear.5 mph88%29.95 "Hg10 mi
12:30 AM63 °FClear.6 mph83%29.95 "Hg10 mi
12:00 AM63 °FClear.5 mph83%29.98 "Hg10 mi
11:30 PM
Aug 22
63 °FClear.5 mph77%29.98 "Hg10 mi
11:00 PM63 °FClear.6 mph77%29.98 "Hg10 mi
10:30 PM63 °FClear.5 mph77%29.98 "Hg10 mi
10:00 PM64 °FClear.3 mph73%29.95 "Hg10 mi
9:30 PM64 °FClear.2 mph73%29.95 "Hg10 mi
9:00 PM66 °FClear.5 mph68%29.95 "Hg10 mi
8:30 PM70 °FClear.3 mph60%29.95 "Hg10 mi
8:00 PM72 °FClear.5 mph61%29.92 "Hg10 mi
7:30 PM72 °FClear.6 mph53%29.92 "Hg10 mi
7:00 PM73 °FSunny.6 mph50%29.89 "Hg10 mi
6:30 PM77 °FSunny.8 mph39%29.89 "Hg10 mi
6:00 PM79 °FSunny.9 mph34%29.89 "Hg10 mi
5:30 PM81 °FSunny.10 mph28%29.89 "Hg10 mi
5:00 PM82 °FSunny.13 mph26%29.86 "Hg10 mi
4:30 PM82 °FSunny.12 mph30%29.86 "Hg10 mi
4:00 PM82 °FSunny.15 mph30%29.86 "Hg10 mi
3:30 PM86 °FSunny.12 mph7%29.86 "Hg10 mi
3:00 PM86 °FSunny.12 mph7%29.89 "Hg10 mi
2:30 PM86 °FSunny.8 mph7%29.89 "Hg10 mi
2:00 PM86 °FSunny.13 mph8%29.92 "Hg10 mi
1:30 PM84 °FSunny.12 mph8%29.92 "Hg10 mi
1:00 PM84 °FSunny.14 mph8%29.95 "Hg10 mi
Weather by CustomWeather, © 2014

See weather overviewHow to use our weather pages